| time (UTC) | temp F | wind direction | speed knots | gust knots | rain 1hr in | rain 24hr in | rain mn in | humidity % | barometer mb |
| 20260507142103 | 49 | 260 | 2.6 | 9.6 | 0.00 | 0.00 | 0.00 | 5 | 1019.2 |
| 20260507141103 | 49 | 237 | 1.7 | 9.6 | 0.00 | 0.00 | 0.00 | 5 | 1019.2 |
| 20260507135102 | 49 | 277 | 2.6 | 11.3 | 0.00 | 0.00 | 0.00 | 5 | 1019.3 |
| 20260507134102 | 49 | 246 | 0.9 | 3.5 | 0.00 | 0.00 | 0.00 | 5 | 1019.4 |
| 20260507133102 | 49 | 235 | 3.5 | 9.6 | 0.00 | 0.00 | 0.00 | 5 | 1019.4 |
| 20260507132102 | 49 | 233 | 2.6 | 7.8 | 0.00 | 0.00 | 0.00 | 5 | 1019.3 |
| 20260507131102 | 49 | 247 | 1.7 | 4.3 | 0.00 | 0.00 | 0.00 | 5 | 1019.3 |
| 20260507125102 | 49 | 259 | 1.7 | 4.3 | 0.00 | 0.00 | 0.00 | 5 | 1019.2 |
| 20260507124102 | 50 | 277 | 3.5 | 3.5 | 0.00 | 0.00 | 0.00 | 5 | 1019.2 |
| 20260507123102 | 50 | 248 | 1.7 | 3.5 | 0.00 | 0.00 | 0.00 | 5 | 1019.2 |
| 20260507122102 | 50 | 260 | 7.0 | 8.7 | 0.00 | 0.00 | 0.00 | 5 | 1019.1 |
| 20260507121102 | 51 | 265 | 7.0 | 14.8 | 0.00 | 0.00 | 0.00 | 5 | 1019.0 |
| 20260507115102 | 51 | 223 | 2.6 | 10.4 | 0.00 | 0.00 | 0.00 | 5 | 1019.1 |
| 20260507114102 | 51 | 293 | 5.2 | 6.1 | 0.00 | 0.00 | 0.00 | 5 | 1019.1 |
| 20260507113102 | 51 | 239 | 6.1 | 12.2 | 0.00 | 0.00 | 0.00 | 5 | 1019.2 |
| 20260507112102 | 51 | 260 | 3.5 | 12.2 | 0.00 | 0.00 | 0.00 | 5 | 1019.2 |
| 20260507111102 | 51 | 215 | 4.3 | 7.8 | 0.00 | 0.00 | 0.00 | 5 | 1019.2 |
| 20260507105101 | 51 | 218 | 5.2 | 7.8 | 0.00 | 0.00 | 0.00 | 5 | 1018.8 |
| 20260507104101 | 51 | 249 | 2.6 | 7.0 | 0.00 | 0.00 | 0.00 | 5 | 1018.8 |
| 20260507103100 | 52 | 237 | 7.8 | 7.8 | 0.00 | 0.00 | 0.00 | 5 | 1018.7 |
| 20260507102100 | 52 | 261 | 4.3 | 9.6 | 0.00 | 0.00 | 0.00 | 4 | 1018.6 |
| 20260507101100 | 53 | 254 | 3.5 | 6.1 | 0.00 | 0.00 | 0.00 | 4 | 1018.6 |
| 20260507100100 | 53 | 219 | 10.4 | 12.2 | 0.00 | 0.00 | 0.00 | 4 | 1018.6 |
| 20260507095100 | 53 | 240 | 6.1 | 6.1 | 0.00 | 0.00 | 0.00 | 4 | 1018.5 |
| 20260507094100 | 53 | 271 | 10.4 | 14.8 | 0.00 | 0.00 | 0.00 | 4 | 1018.2 |
| 20260507093100 | 53 | 219 | 2.6 | 10.4 | 0.00 | 0.00 | 0.00 | 4 | 1018.2 |
| 20260507092100 | 53 | 264 | 4.3 | 4.3 | 0.00 | 0.00 | 0.00 | 4 | 1018.0 |
| 20260507091100 | 53 | 258 | 7.8 | 8.7 | 0.00 | 0.00 | 0.00 | 4 | 1018.0 |
| 20260507090100 | 53 | 229 | 2.6 | 4.3 | 0.00 | 0.00 | 0.00 | 4 | 1017.9 |
| 20260507085100 | 53 | 251 | 7.8 | 7.8 | 0.00 | 0.00 | 0.00 | 4 | 1017.8 |
| 20260507084100 | 53 | 235 | 5.2 | 9.6 | 0.00 | 0.00 | 0.00 | 4 | 1017.8 |
| 20260507083059 | 54 | 241 | 5.2 | 7.8 | 0.00 | 0.00 | 0.00 | 4 | 1017.4 |
| 20260507082059 | 54 | 236 | 8.7 | 10.4 | 0.00 | 0.00 | 0.00 | 4 | 1017.4 |
| 20260507081059 | 54 | 237 | 9.6 | 9.6 | 0.00 | 0.00 | 0.00 | 4 | 1017.2 |
| 20260507080059 | 54 | 243 | 3.5 | 8.7 | 0.00 | 0.00 | 0.00 | 4 | 1017.0 |
| 20260507075059 | 54 | 233 | 11.3 | 11.3 | 0.00 | 0.00 | 0.00 | 4 | 1016.6 |
| 20260507074059 | 55 | 233 | 4.3 | 11.3 | 0.00 | 0.00 | 0.00 | 4 | 1016.4 |
| 20260507073059 | 55 | 249 | 9.6 | 10.4 | 0.00 | 0.00 | 0.00 | 4 | 1016.3 |
| 20260507072059 | 55 | 283 | 7.0 | 14.8 | 0.00 | 0.00 | 0.00 | 4 | 1016.2 |
| 20260507071059 | 56 | 216 | 8.7 | 12.2 | 0.00 | 0.00 | 0.00 | 4 | 1016.2 |
| 20260507070058 | 56 | 264 | 9.6 | 15.6 | 0.00 | 0.00 | 0.00 | 4 | 1016.0 |
| 20260507065058 | 56 | 254 | 7.8 | 20.0 | 0.00 | 0.00 | 0.00 | 4 | 1015.9 |
| 20260507064058 | 56 | 233 | 6.1 | 20.9 | 0.00 | 0.00 | 0.00 | 4 | 1015.7 |
| 20260507063058 | 57 | 224 | 16.5 | 18.2 | 0.00 | 0.00 | 0.00 | 4 | 1015.6 |
| 20260507062058 | 57 | 222 | 3.5 | 20.0 | 0.00 | 0.00 | 0.00 | 3 | 1015.4 |
| 20260507061058 | 57 | 233 | 20.0 | 20.0 | 0.00 | 0.00 | 0.00 | 3 | 1015.3 |
| 20260507060057 | 58 | 256 | 8.7 | 10.4 | 0.00 | 0.00 | 0.00 | 3 | 1015.0 |
| 20260507055057 | 58 | 275 | 11.3 | 11.3 | 0.00 | 0.00 | 0.00 | 3 | 1015.1 |
| 20260507054057 | 58 | 225 | 6.1 | 8.7 | 0.00 | 0.00 | 0.00 | 3 | 1015.2 |
| 20260507053057 | 58 | 246 | 9.6 | 19.1 | 0.00 | 0.00 | 0.00 | 3 | 1015.0 |
| 20260507052057 | 59 | 269 | 12.2 | 20.0 | 0.00 | 0.00 | 0.00 | 3 | 1014.8 |
| 20260507051057 | 59 | 170 | 7.8 | 20.0 | 0.00 | 0.00 | 0.00 | 3 | 1014.8 |
| 20260507050138 | 59 | 262 | 8.7 | 13.9 | 0.00 | 0.00 | 0.00 | 3 | 1014.8 |
| 20260507050057 | 59 | 262 | 8.7 | 13.9 | 0.00 | 0.00 | 0.00 | 3 | 1014.8 |
| 20260507045057 | 60 | 238 | 5.2 | 12.2 | 0.00 | 0.00 | 0.00 | 3 | 1014.6 |
| 20260507044057 | 60 | 228 | 3.5 | 4.3 | 0.00 | 0.00 | 0.00 | 3 | 1014.6 |
| 20260507043057 | 60 | 237 | 12.2 | 12.2 | 0.00 | 0.00 | 0.00 | 3 | 1014.4 |
| 20260507042057 | 60 | 250 | 10.4 | 19.1 | 0.00 | 0.00 | 0.00 | 3 | 1014.4 |
| 20260507041057 | 60 | 274 | 8.7 | 14.8 | 0.00 | 0.00 | 0.00 | 3 | 1013.9 |
| 20260507040056 | 61 | 262 | 7.0 | 18.2 | 0.00 | 0.00 | 0.00 | 3 | 1014.1 |
| 20260507035056 | 61 | 180 | 7.0 | 9.6 | 0.00 | 0.00 | 0.00 | 3 | 1013.9 |
| 20260507034056 | 61 | 278 | 3.5 | 8.7 | 0.00 | 0.00 | 0.00 | 3 | 1013.9 |
| 20260507033056 | 60 | 245 | 7.0 | 15.6 | 0.00 | 0.00 | 0.00 | 3 | 1014.0 |
| 20260507032056 | 61 | 189 | 4.3 | 14.8 | 0.00 | 0.00 | 0.00 | 2 | 1013.9 |
| 20260507031056 | 61 | 193 | 8.7 | 14.8 | 0.00 | 0.00 | 0.00 | 3 | 1013.8 |
| 20260507030056 | 60 | 229 | 10.4 | 13.0 | 0.00 | 0.00 | 0.00 | 3 | 1013.9 |
| 20260507025056 | 60 | 235 | 6.1 | 10.4 | 0.00 | 0.00 | 0.00 | 3 | 1014.0 |
| 20260507024056 | 61 | 239 | 6.1 | 11.3 | 0.00 | 0.00 | 0.00 | 3 | 1014.0 |
| 20260507023056 | 61 | 270 | 7.0 | 17.4 | 0.00 | 0.00 | 0.00 | 3 | 1013.9 |
| 20260507022056 | 61 | 253 | 10.4 | 20.9 | 0.00 | 0.00 | 0.00 | 3 | 1013.9 |
| 20260507021056 | 61 | 208 | 7.0 | 15.6 | 0.00 | 0.00 | 0.00 | 4 | 1013.9 |
| 20260507020056 | 61 | 206 | 7.0 | 13.9 | 0.00 | 0.00 | 0.00 | 5 | 1014.0 |
| 20260507015056 | 60 | 185 | 2.6 | 10.4 | 0.00 | 0.00 | 0.00 | 5 | 1014.1 |
| 20260507014056 | 59 | 225 | 7.8 | 12.2 | 0.00 | 0.00 | 0.00 | 5 | 1014.1 |
| 20260507013056 | 58 | 225 | 3.5 | 15.6 | 0.00 | 0.00 | 0.00 | 5 | 1014.2 |
| 20260507012056 | 58 | 265 | 7.0 | 13.9 | 0.00 | 0.00 | 0.00 | 5 | 1014.3 |
| 20260507011056 | 60 | 195 | 4.3 | 20.0 | 0.00 | 0.00 | 0.00 | 5 | 1014.5 |
| 20260507010056 | 62 | 229 | 7.8 | 8.7 | 0.00 | 0.00 | 0.00 | 5 | 1013.8 |
| 20260507005056 | 64 | 264 | 2.6 | 6.1 | 0.00 | 0.00 | 0.00 | 5 | 1013.8 |
| 20260507004056 | 62 | 242 | 8.7 | 8.7 | 0.00 | 0.00 | 0.00 | 6 | 1013.8 |
| 20260507003056 | 62 | 175 | 1.7 | 3.5 | 0.00 | 0.00 | 0.00 | 5 | 1013.8 |
| 20260507002056 | 63 | 241 | 5.2 | 5.2 | 0.00 | 0.00 | 0.00 | 5 | 1013.9 |
| 20260507001056 | 62 | 223 | 0.9 | 2.6 | 0.00 | 0.00 | 0.00 | 6 | 1013.8 |
| 20260507000056 | 62 | 293 | 0.9 | 8.7 | 0.00 | 0.00 | 0.00 | 5 | 1013.9 |
| 20260506235056 | 62 | 318 | 1.7 | 3.5 | 0.00 | 0.00 | 0.00 | 6 | 1013.9 |
| 20260506234056 | 61 | 254 | 1.7 | 6.1 | 0.00 | 0.00 | 0.00 | 6 | 1013.8 |
| 20260506233056 | 61 | 252 | 0.9 | 1.7 | 0.00 | 0.00 | 0.00 | 6 | 1013.8 |
| 20260506232056 | 61 | 301 | 1.7 | 1.7 | 0.00 | 0.00 | 0.00 | 6 | 1013.9 |
| 20260506231056 | 60 | 0 | 0.0 | 1.7 | 0.00 | 0.00 | 0.00 | 6 | 1013.8 |
| 20260506230056 | 60 | 264 | 3.5 | 13.9 | 0.00 | 0.00 | 0.00 | 6 | 1014.0 |
| 20260506225056 | 59 | 242 | 3.5 | 3.5 | 0.00 | 0.00 | 0.00 | 6 | 1013.9 |
| 20260506224056 | 59 | 266 | 1.7 | 1.7 | 0.00 | 0.00 | 0.00 | 6 | 1013.8 |
| 20260506223056 | 58 | 295 | 0.9 | 2.6 | 0.00 | 0.00 | 0.00 | 6 | 1013.8 |
| 20260506222056 | 57 | 240 | 1.7 | 3.5 | 0.00 | 0.00 | 0.00 | 7 | 1013.8 |
| 20260506221056 | 56 | 301 | 2.6 | 2.6 | 0.00 | 0.00 | 0.00 | 7 | 1013.9 |
| 20260506220056 | 55 | 302 | 2.6 | 2.6 | 0.00 | 0.00 | 0.00 | 7 | 1013.8 |
| 20260506215056 | 54 | 0 | 0.0 | 0.0 | 0.00 | 0.00 | 0.00 | 7 | 1013.7 |
| 20260506214056 | 53 | 0 | 0.0 | 2.6 | 0.00 | 0.00 | 0.00 | 7 | 1013.7 |
| 20260506213056 | 52 | 0 | 0.0 | 0.0 | 0.00 | 0.00 | 0.00 | 7 | 1013.6 |
| 20260506212056 | 52 | 0 | 0.0 | 0.0 | 0.00 | 0.00 | 0.00 | 7 | 1013.6 |
| 20260506211056 | 51 | 0 | 0.0 | 0.0 | 0.00 | 0.00 | 0.00 | 8 | 1013.7 |
| 20260506210056 | 50 | 0 | 0.0 | 0.0 | 0.00 | 0.00 | 0.00 | 8 | 1013.7 |
| 20260506205056 | 50 | 0 | 0.0 | 0.0 | 0.00 | 0.00 | 0.00 | 8 | 1013.6 |
| 20260506204056 | 51 | 0 | 0.0 | 2.6 | 0.00 | 0.00 | 0.00 | 8 | 1013.6 |
| 20260506203056 | 51 | 275 | 2.6 | 2.6 | 0.00 | 0.00 | 0.00 | 8 | 1013.6 |
| 20260506202056 | 51 | 0 | 0.0 | 0.0 | 0.00 | 0.00 | 0.00 | 8 | 1013.5 |
| 20260506201056 | 51 | 0 | 0.0 | 0.0 | 0.00 | 0.00 | 0.00 | 8 | 1013.6 |
| 20260506200056 | 51 | 0 | 0.0 | 0.0 | 0.00 | 0.00 | 0.00 | 8 | 1013.6 |
| 20260506195056 | 52 | 0 | 0.0 | 0.0 | 0.00 | 0.00 | 0.00 | 8 | 1013.7 |
| 20260506194055 | 52 | 0 | 0.0 | 0.0 | 0.00 | 0.00 | 0.00 | 8 | 1013.6 |
| 20260506193055 | 52 | 0 | 0.0 | 0.0 | 0.00 | 0.00 | 0.00 | 8 | 1013.5 |
| 20260506192055 | 52 | 0 | 0.0 | 0.0 | 0.00 | 0.00 | 0.00 | 8 | 1013.4 |
| 20260506191055 | 52 | 0 | 0.0 | 1.7 | 0.00 | 0.00 | 0.00 | 8 | 1013.3 |
| 20260506190055 | 52 | 0 | 0.0 | 0.0 | 0.00 | 0.00 | 0.00 | 8 | 1013.1 |
| 20260506185055 | 52 | 0 | 0.0 | 0.0 | 0.00 | 0.00 | 0.00 | 8 | 1012.9 |
| 20260506184055 | 52 | 0 | 0.0 | 0.0 | 0.00 | 0.00 | 0.00 | 8 | 1013.0 |
| 20260506183055 | 53 | 0 | 0.0 | 0.0 | 0.00 | 0.00 | 0.00 | 8 | 1013.0 |
| 20260506182055 | 53 | 0 | 0.0 | 0.0 | 0.00 | 0.00 | 0.00 | 8 | 1013.1 |
| 20260506181055 | 54 | 0 | 0.0 | 0.0 | 0.00 | 0.00 | 0.00 | 8 | 1012.9 |
| 20260506180055 | 54 | 272 | 0.9 | 3.5 | 0.00 | 0.00 | 0.00 | 8 | 1012.8 |
| 20260506175055 | 55 | 0 | 0.0 | 2.6 | 0.00 | 0.00 | 0.00 | 8 | 1012.8 |
| 20260506174055 | 54 | 303 | 1.7 | 3.5 | 0.00 | 0.00 | 0.00 | 8 | 1012.9 |
| 20260506173055 | 54 | 253 | 1.7 | 2.6 | 0.00 | 0.00 | 0.00 | 8 | 1013.1 |
| 20260506172055 | 54 | 250 | 2.6 | 3.5 | 0.00 | 0.00 | 0.00 | 8 | 1013.2 |
| 20260506171055 | 54 | 0 | 0.0 | 0.0 | 0.00 | 0.00 | 0.00 | 8 | 1013.0 |
| 20260506170055 | 55 | 0 | 0.0 | 0.0 | 0.00 | 0.00 | 0.00 | 8 | 1013.1 |
| 20260506165055 | 55 | 0 | 0.0 | 0.9 | 0.00 | 0.00 | 0.00 | 8 | 1013.2 |
| 20260506164055 | 56 | 0 | 0.0 | 0.0 | 0.00 | 0.00 | 0.00 | 8 | 1013.4 |
| 20260506163055 | 57 | 0 | 0.0 | 2.6 | 0.00 | 0.00 | 0.00 | 8 | 1013.4 |
| 20260506162055 | 57 | 0 | 0.0 | 2.6 | 0.00 | 0.00 | 0.00 | 8 | 1013.6 |
| 20260506161055 | 57 | 0 | 0.0 | 2.6 | 0.00 | 0.00 | 0.00 | 8 | 1013.7 |
| 20260506160055 | 57 | 249 | 0.9 | 1.7 | 0.00 | 0.00 | 0.00 | 8 | 1013.8 |
| 20260506155055 | 57 | 249 | 0.9 | 3.5 | 0.00 | 0.00 | 0.00 | 8 | 1013.8 |
| 20260506154055 | 58 | 264 | 1.7 | 3.5 | 0.00 | 0.00 | 0.00 | 8 | 1014.0 |
| 20260506153055 | 58 | 234 | 2.6 | 4.3 | 0.00 | 0.00 | 0.00 | 8 | 1014.0 |
| 20260506152055 | 58 | 272 | 3.5 | 4.3 | 0.00 | 0.00 | 0.00 | 8 | 1014.1 |
| 20260506151054 | 59 | 228 | 2.6 | 2.6 | 0.00 | 0.00 | 0.00 | 8 | 1014.1 |
| 20260506150054 | 59 | 243 | 3.5 | 4.3 | 0.00 | 0.00 | 0.00 | 8 | 1014.2 |
| 20260506145054 | 59 | 229 | 1.7 | 2.6 | 0.00 | 0.00 | 0.00 | 8 | 1014.2 |
| 20260506144053 | 59 | 0 | 0.0 | 0.0 | 0.00 | 0.00 | 0.00 | 8 | 1014.2 |
| 20260506143052 | 59 | 0 | 0.0 | 1.7 | 0.00 | 0.00 | 0.00 | 8 | 1014.4 |